Weather History for KHYW - February, 2014

Change the Weather History Date:

Thursday, February 27, 2014

  Actual Average Record
Temperature  
Mean Temperature 44 °F -  
Max Temperature 57 °F 59 °F 80 °F (2011)
Min Temperature 32 °F 36 °F 32 °F (2014)
Degree Days  
Heating Degree Days 20    
Moisture  
Dew Point 35 °F    
Average Humidity 83    
Maximum Humidity 100    
Minimum Humidity 38    
Precipitation  
Precipitation 0.00 in - - ()
Sea Level Pressure  
Sea Level Pressure 29.88 in    
Wind  
Wind Speed 1 mph (SW)    
Max Wind Speed 12 mph    
Max Gust Speed 16 mph    
Visibility 5 miles    
Events Fog , Snow    
Averages and records for this station are not official NWS values.
T = Trace of Precipitation, MM = Missing Value Source: NWS Daily Summary

Daily Weather History Graph

Daily Weather History Graph

Search for Another Location

Airport or City:

Trip Planner

Search our weather history database for the weather conditions in past years. The results will help you decide how hot, cold, wet, or windy it might be!

Date:

Astronomy

Feb. 27, 2014 Rise Set
Actual Time 6:47 AM EST 6:11 PM EST
Civil Twilight 6:22 AM EST 6:36 PM EST
Nautical Twilight 5:53 AM EST 7:05 PM EST
Astronomical Twilight 5:24 AM EST 7:34 PM EST
Moon 5:15 AM EST (2/27) 4:37 PM EST (2/27)
Length of Visible Light 12h 14m
Length of Day
11h 23m
Waning Crescent, 4% of the Moon is Illuminated
Feb 27
Waning Crescent
Mar 1
New
Mar 8
First Quarter
Mar 16
Full
Mar 23
Last Quarter

Hourly Weather History & Observations

Time (EST) Temp. Windchill Dew Point Humidity Pressure Visibility Wind Dir Wind Speed Gust Speed Precip Events Conditions
12:15 AM 37.4 °F - 37.4 °F 100% 29.86 in 3.0 mi Calm Calm - N/A   Scattered Clouds
12:35 AM 37.4 °F - 37.4 °F 100% 29.85 in 3.0 mi Calm Calm - N/A   Clear
12:55 AM 35.6 °F - 35.6 °F 100% 29.85 in 2.5 mi Calm Calm - N/A   Clear
1:15 AM 35.6 °F - 35.6 °F 100% 29.85 in 2.5 mi Calm Calm - N/A   Scattered Clouds
1:35 AM 35.6 °F - 35.6 °F 100% 29.85 in 2.0 mi Calm Calm - N/A   Clear
1:55 AM 35.6 °F - 35.6 °F 100% 29.85 in 2.5 mi Calm Calm - N/A   Clear
2:15 AM 35.6 °F - 35.6 °F 100% 29.85 in 2.5 mi Calm Calm - N/A   Clear
2:35 AM 35.6 °F - 35.6 °F 100% 29.85 in 2.5 mi Calm Calm - N/A   Scattered Clouds
2:55 AM 35.6 °F - 35.6 °F 100% 29.85 in 2.5 mi Calm Calm - N/A   Scattered Clouds
3:15 AM 35.6 °F - 35.6 °F 100% 29.85 in 2.0 mi Calm Calm - N/A   Clear
3:35 AM 35.6 °F - 35.6 °F 100% 29.85 in 2.0 mi Calm Calm - N/A   Clear
3:55 AM 33.8 °F - 33.8 °F 100% 29.85 in 2.0 mi Calm Calm - N/A   Clear
4:15 AM 33.8 °F - 33.8 °F 100% 29.85 in 2.5 mi Calm Calm - N/A   Clear
4:35 AM 33.8 °F - 33.8 °F 100% 29.85 in 1.2 mi Calm Calm - N/A   Mist
4:55 AM 33.8 °F - 33.8 °F 100% 29.86 in 1.5 mi Calm Calm - N/A   Mist
5:15 AM 32.0 °F - 32.0 °F 100% 29.86 in 1.2 mi Calm Calm - N/A   Mist
5:35 AM 32.0 °F - 32.0 °F 100% 29.87 in 1.0 mi Calm Calm - N/A   Overcast
5:55 AM 32.0 °F - 32.0 °F 100% 29.87 in 1.8 mi Calm Calm - N/A   Mostly Cloudy
6:15 AM 33.8 °F - 33.8 °F 100% 29.88 in 2.5 mi Calm Calm - N/A   Mostly Cloudy
6:35 AM 33.8 °F - 33.8 °F 100% 29.88 in 0.5 mi Calm Calm - N/A   Overcast
6:55 AM 33.8 °F - 33.8 °F 100% 29.89 in 0.5 mi Calm Calm - N/A Snow Light Snow
7:15 AM 33.8 °F - 33.8 °F 100% 29.89 in 0.5 mi Calm Calm - N/A Snow Light Snow
7:35 AM 33.8 °F - 33.8 °F 100% 29.90 in 0.2 mi Calm Calm - N/A Snow Light Snow
7:55 AM 33.8 °F - 33.8 °F 100% 29.91 in 0.2 mi Calm Calm - N/A Snow Light Snow
8:15 AM 33.8 °F - 33.8 °F 100% 29.91 in 0.2 mi Calm Calm - N/A Snow Light Snow
8:35 AM 33.8 °F - 33.8 °F 100% 29.91 in 0.2 mi Calm Calm - N/A Fog Fog
8:55 AM 35.6 °F - 35.6 °F 100% 29.91 in 0.2 mi Calm Calm - N/A Snow Light Snow
9:15 AM 35.6 °F - 35.6 °F 100% 29.92 in 0.2 mi Calm Calm - N/A Snow Light Snow
9:35 AM 35.6 °F - 35.6 °F 100% 29.92 in 1.5 mi Calm Calm - N/A   Overcast
9:55 AM 39.2 °F - 39.2 °F 100% 29.91 in 3.0 mi Calm Calm - N/A   Overcast
10:15 AM 41.0 °F - 41.0 °F 100% 29.91 in 5.0 mi Calm Calm - N/A   Overcast
10:35 AM 41.0 °F - 41.0 °F 100% 29.91 in 7.0 mi Calm Calm - N/A   Mostly Cloudy
10:55 AM 44.6 °F 42.2 °F 42.8 °F 93% 29.90 in 7.0 mi SSW 4.6 mph - N/A   Scattered Clouds
11:15 AM 44.6 °F 41.4 °F 37.4 °F 76% 29.90 in 7.0 mi WSW 5.8 mph - N/A   Scattered Clouds
11:35 AM 46.4 °F 44.3 °F 35.6 °F 66% 29.89 in 5.0 mi WSW 4.6 mph - N/A   Haze
11:55 AM 50.0 °F - 33.8 °F 54% 29.88 in 7.0 mi West 8.1 mph - N/A   Clear
12:15 PM 50.0 °F - 33.8 °F 54% 29.87 in 5.0 mi SSW 6.9 mph - N/A   Haze
12:35 PM 51.8 °F - 35.6 °F 54% 29.86 in 5.0 mi West 3.5 mph - N/A   Haze
12:55 PM 51.8 °F - 35.6 °F 54% 29.85 in 7.0 mi SSW 9.2 mph - N/A   Clear
1:15 PM 51.8 °F - 33.8 °F 50% 29.84 in 5.0 mi WSW 5.8 mph - N/A   Haze
1:35 PM 53.6 °F - 35.6 °F 51% 29.83 in 7.0 mi WSW 5.8 mph - N/A   Clear
1:55 PM 53.6 °F - 35.6 °F 51% 29.83 in 7.0 mi SW 6.9 mph - N/A   Clear
2:15 PM 53.6 °F - 35.6 °F 51% 29.83 in 5.0 mi WSW 9.2 mph 16.1 mph N/A   Haze
2:35 PM 55.4 °F - 33.8 °F 44% 29.82 in 7.0 mi WSW 10.4 mph 16.1 mph N/A   Clear
2:55 PM 55.4 °F - 33.8 °F 44% 29.82 in 5.0 mi SSW 11.5 mph - N/A   Haze
3:15 PM 55.4 °F - 32.0 °F 41% 29.81 in 7.0 mi WSW 6.9 mph - N/A   Clear
3:35 PM 55.4 °F - 33.8 °F 44% 29.81 in 5.0 mi SSW 6.9 mph - N/A   Haze
3:55 PM 57.2 °F - 33.8 °F 41% 29.81 in 5.0 mi WSW 4.6 mph - N/A   Haze
4:15 PM 57.2 °F - 33.8 °F 41% 29.82 in 7.0 mi SW 9.2 mph - N/A   Clear
4:35 PM 57.2 °F - 32.0 °F 38% 29.82 in 7.0 mi WSW 5.8 mph - N/A   Clear
4:55 PM 55.4 °F - 32.0 °F 41% 29.82 in 7.0 mi WSW 4.6 mph - N/A   Clear
5:15 PM 55.4 °F - 32.0 °F 41% 29.83 in 7.0 mi WSW 4.6 mph - N/A   Clear
5:35 PM 55.4 °F - 33.8 °F 44% 29.84 in 7.0 mi WSW 3.5 mph - N/A   Clear
5:55 PM 53.6 °F - 33.8 °F 47% 29.84 in 5.0 mi Calm Calm - N/A   Haze
6:15 PM 50.0 °F - 35.6 °F 58% 29.85 in 7.0 mi Calm Calm - N/A   Clear
6:35 PM 46.4 °F - 35.6 °F 66% 29.86 in 10.0 mi Calm Calm - N/A   Clear
6:55 PM 44.6 °F - 37.4 °F 76% 29.87 in 10.0 mi Calm Calm - N/A   Clear
7:15 PM 42.8 °F - 39.2 °F 87% 29.88 in 10.0 mi Calm Calm - N/A   Clear
7:35 PM 41.0 °F - 37.4 °F 87% 29.89 in 10.0 mi Calm Calm - N/A   Clear
7:55 PM 41.0 °F - 41.0 °F 100% 29.90 in 10.0 mi Calm Calm - N/A   Clear
8:15 PM 41.0 °F - 41.0 °F 100% 29.90 in 10.0 mi Calm Calm - N/A   Clear
8:35 PM 37.4 °F - 37.4 °F 100% 29.91 in 10.0 mi Calm Calm - N/A   Clear
8:55 PM 37.4 °F - 37.4 °F 100% 29.92 in 10.0 mi Calm Calm - N/A   Clear
9:15 PM 37.4 °F - 37.4 °F 100% 29.93 in 10.0 mi Calm Calm - N/A   Clear
9:35 PM 35.6 °F - 35.6 °F 100% 29.94 in 10.0 mi Calm Calm - N/A   Clear
9:55 PM 35.6 °F - 35.6 °F 100% 29.95 in 7.0 mi Calm Calm - N/A   Clear
10:15 PM 35.6 °F - 35.6 °F 100% 29.96 in 10.0 mi Calm Calm - N/A   Clear
10:35 PM 33.8 °F - 33.8 °F 100% 29.96 in 10.0 mi Calm Calm - N/A   Clear
10:55 PM 35.6 °F - 35.6 °F 100% 29.96 in 10.0 mi Calm Calm - N/A   Clear
11:15 PM 33.8 °F - 33.8 °F 100% 29.96 in 7.0 mi Calm Calm - N/A   Clear
11:35 PM 33.8 °F - 33.8 °F 100% 29.96 in 7.0 mi Calm Calm - N/A   Clear
11:55 PM 33.8 °F - 33.8 °F 100% 29.96 in 7.0 mi Calm Calm - N/A   Clear